Regional Weather Roundup
Issued by NWS Charleston, WV

Home | Current Version | Previous Version | Text Only | Print | Product List | Glossary Off
Versions: 1 2 3 4 5 6 7 8 9 10 11 12 13 14 15 16 17 18 19 20 21 22 23 24 25 26 27 28 29 30 31 32 33 34 35 36 37 38 39 40 41 42 43 44 45 46 47 48 49 50

000
ASUS41 KRLX 051810
RWRRLX
West Virginia Regional Weather Roundup
National Weather Service Charleston WV
100 PM EST THU MAR 05 2015

Note: "fair" indicates few or no clouds below 12,000 feet with no
significant weather and/or obstructions to visibility.

WVZ003-051900-
Northern Panhandle of West Virginia

CITY           SKY/WX    TMP DP  RH WIND       PRES   REMARKS
WHEELING       MIX PCPN  16   1  51 NW9       30.28R WCI   4
$$

WVZ009-051900-
Northwest West Virginia

CITY           SKY/WX    TMP DP  RH WIND       PRES   REMARKS
PARKERSBURG    LGT SNOW  19  14  81 NW7       30.32R WCI  10
$$

WVZ006-051900-
Western West Virginia

CITY           SKY/WX    TMP DP  RH WIND       PRES   REMARKS
HUNTINGTON     LGT SNOW  20  17  88 N9        30.29S VSB 3/4 WCI   9
$$

WVZ015-051900-
West Central West Virginia

CITY           SKY/WX    TMP DP  RH WIND       PRES   REMARKS
CHARLESTON     LGT SNOW  22  18  85 NW8       30.25F VSB 1
$$

WVZ022-031-051900-
North Central West Virginia

CITY           SKY/WX    TMP DP  RH WIND       PRES   REMARKS
CLARKSBURG     LGT SNOW N/A N/A N/A NE8       30.23S VSB 1
MORGANTOWN     NOT AVBL
$$

WVZ025-035-042-045-051900-
Southern West Virginia

CITY           SKY/WX    TMP DP  RH WIND       PRES   REMARKS
BECKLEY        LGT SNOW  22  18  85 N7        30.08F VSB 1
LOGAN          LGT SNOW  21  19  93 N6        30.15F VSB 1
BLUEFIELD      MIX PCPN  26  20  77 NW7       30.07S
LEWISBURG      SNOW      28  26  94 N6        30.07F VSB 1/4
$$

WVZ047-051900-
Northern Mountains of West Virginia

CITY           SKY/WX    TMP DP  RH WIND       PRES   REMARKS
ELKINS         SNOW      21  18  88 NW6       30.14F VSB 1/4
$$

WVZ052-051900-
Eastern Panhandle of West Virginia

CITY           SKY/WX    TMP DP  RH WIND       PRES   REMARKS
MARTINSBURG    HVY SNOW  25  20  81 N10       30.20R VSB 1/4
PETERSBURG       N/A    N/A N/A N/A MISG        N/A
$$


USA.gov is the U.S. government's official web portal to all federal, state and local government web resources and services.